Latest Weather Observations for Inner Beacon

IDQ60801

Issued at 3:02 am EST Tuesday 26 May 2015 (issued every 30 minutes, with the page automatically refreshed every 10 minutes)

About weather observations | Map of weather stations | Latest weather observations for QLD | Other Formats
Station Details ID: 040926 Name: INNER RECIPROCAL MARKER Lat: -27.26 Lon: 153.24 Height: 20.0 m
Data from the previous 72 hours. | See also: Recent months for locations in Queensland
Date/Time
EST
Temp
°C
App
Temp
°C
Dew
Point
Rel
Hum
%
Delta-T
°C
Wind Press
QNH
hPa
Press
MSL
hPa
Rain
since 9 am
mm
Dir
 
Spd
km/h
Gust
km/h
Spd
kts
Gust
kts
26/03:00am - - - - - SSW 20 24 11 13 - - -
26/02:30am - - - - - SSW 20 24 11 13 - - -
26/02:00am - - - - - S 19 22 10 12 - - -
26/01:30am - - - - - S 19 22 10 12 - - -
26/01:00am - - - - - SSW 20 22 11 12 - - -
26/12:30am - - - - - SSW 19 20 10 11 - - -
26/12:00am - - - - - SSW 19 22 10 12 - - -
 
Date/Time
EST
Temp
°C
App
Temp
°C
Dew
Point
Rel
Hum
%
Delta-T
°C
Wind Press
QNH
hPa
Press
MSL
hPa
Rain
since 9 am
mm
Dir
 
Spd
km/h
Gust
km/h
Spd
kts
Gust
kts
25/11:30pm - - - - - SSW 19 20 10 11 - - -
25/11:00pm - - - - - S 22 26 12 14 - - -
25/10:30pm - - - - - S 22 28 12 15 - - -
25/10:00pm - - - - - S 19 24 10 13 - - -
25/09:30pm - - - - - S 20 26 11 14 - - -
25/09:00pm - - - - - S 19 22 10 12 - - -
25/08:30pm - - - - - S 17 19 9 10 - - -
25/08:00pm - - - - - S 15 17 8 9 - - -
25/07:30pm - - - - - SSE 17 19 9 10 - - -
25/07:00pm - - - - - SSE 19 22 10 12 - - -
25/06:30pm - - - - - SE 22 24 12 13 - - -
25/06:00pm - - - - - SE 22 24 12 13 - - -
25/05:30pm - - - - - SE 22 26 12 14 - - -
25/05:00pm - - - - - SE 20 24 11 13 - - -
25/04:30pm - - - - - SE 20 24 11 13 - - -
25/04:00pm - - - - - SE 19 22 10 12 - - -
25/03:30pm - - - - - SE 22 28 12 15 - - -
25/03:00pm - - - - - SE 24 28 13 15 - - -
25/02:30pm - - - - - SE 24 28 13 15 - - -
25/02:00pm - - - - - SE 24 28 13 15 - - -
25/01:30pm - - - - - SSE 22 24 12 13 - - -
25/01:00pm - - - - - SSE 22 26 12 14 - - -
25/12:30pm - - - - - SSE 24 26 13 14 - - -
25/12:00pm - - - - - SSE 24 26 13 14 - - -
25/11:30am - - - - - S 22 26 12 14 - - -
25/11:00am - - - - - S 24 28 13 15 - - -
25/10:30am - - - - - S 22 26 12 14 - - -
25/10:00am - - - - - S 20 24 11 13 - - -
25/09:30am - - - - - SSW 20 22 11 12 - - -
25/09:00am - - - - - SSW 20 24 11 13 - - -
25/08:30am - - - - - S 22 24 12 13 - - -
25/08:00am - - - - - S 22 24 12 13 - - -
25/07:30am - - - - - SSW 24 28 13 15 - - -
25/07:00am - - - - - SSW 22 26 12 14 - - -
25/06:30am - - - - - SSW 24 28 13 15 - - -
25/06:00am - - - - - SSW 24 26 13 14 - - -
25/05:30am - - - - - SSW 26 28 14 15 - - -
25/05:00am - - - - - SSW 26 30 14 16 - - -
25/04:30am - - - - - SSW 24 26 13 14 - - -
25/04:00am - - - - - SSW 20 22 11 12 - - -
25/03:30am - - - - - SSW 22 28 12 15 - - -
25/03:00am - - - - - SSW 22 26 12 14 - - -
25/02:30am - - - - - SSW 22 26 12 14 - - -
25/02:00am - - - - - SSW 22 26 12 14 - - -
25/01:30am - - - - - SSW 24 32 13 17 - - -
25/01:00am - - - - - SSW 24 26 13 14 - - -
25/12:30am - - - - - S 24 28 13 15 - - -
25/12:00am - - - - - S 20 24 11 13 - - -
 
Date/Time
EST
Temp
°C
App
Temp
°C
Dew
Point
Rel
Hum
%
Delta-T
°C
Wind Press
QNH
hPa
Press
MSL
hPa
Rain
since 9 am
mm
Dir
 
Spd
km/h
Gust
km/h
Spd
kts
Gust
kts
24/11:30pm - - - - - S 24 28 13 15 - - -
24/11:00pm - - - - - S 22 28 12 15 - - -
24/10:30pm - - - - - S 26 32 14 17 - - -
24/10:00pm - - - - - S 30 35 16 19 - - -
24/09:30pm - - - - - S 28 33 15 18 - - -
24/09:00pm - - - - - S 30 35 16 19 - - -
24/08:30pm - - - - - S 33 39 18 21 - - -
24/08:00pm - - - - - S 32 37 17 20 - - -
24/07:30pm - - - - - SSE 19 28 10 15 - - -
24/07:00pm - - - - - ESE 24 33 13 18 - - -
24/06:30pm - - - - - SSE 30 33 16 18 - - -
24/06:00pm - - - - - S 26 32 14 17 - - -
24/05:30pm - - - - - S 39 48 21 26 - - -
24/05:00pm - - - - - SSE 43 52 23 28 - - -
24/04:30pm - - - - - SSE 33 41 18 22 - - -
24/04:00pm - - - - - SSE 37 44 20 24 - - -
24/03:30pm - - - - - SSE 33 44 18 24 - - -
24/03:00pm - - - - - SSE 32 39 17 21 - - -
24/02:30pm - - - - - SSE 32 37 17 20 - - -
24/02:00pm - - - - - SSE 33 39 18 21 - - -
24/01:30pm - - - - - SSE 33 41 18 22 - - -
24/01:00pm - - - - - SSE 33 39 18 21 - - -
24/12:30pm - - - - - SSE 32 39 17 21 - - -
24/12:00pm - - - - - SSE 30 33 16 18 - - -
24/11:30am - - - - - SSE 24 28 13 15 - - -
24/11:00am - - - - - SSE 28 32 15 17 - - -
24/10:30am - - - - - S 22 32 12 17 - - -
24/10:00am - - - - - S 24 28 13 15 - - -
24/09:30am - - - - - SSW 26 30 14 16 - - -
24/09:00am - - - - - S 30 37 16 20 - - -
24/08:30am - - - - - SSW 30 33 16 18 - - -
24/08:00am - - - - - SSW 28 33 15 18 - - -
24/07:30am - - - - - SW 24 26 13 14 - - -
24/07:00am - - - - - SSW 22 28 12 15 - - -
24/06:30am - - - - - S 26 30 14 16 - - -
24/06:00am - - - - - SSW 28 32 15 17 - - -
24/05:30am - - - - - SSW 26 32 14 17 - - -
24/05:00am - - - - - SSW 28 32 15 17 - - -
24/04:30am - - - - - SSW 26 30 14 16 - - -
24/04:00am - - - - - SSW 24 28 13 15 - - -
24/03:30am - - - - - SSW 22 28 12 15 - - -
24/03:00am - - - - - SSW 26 32 14 17 - - -
24/02:30am - - - - - SSW 24 28 13 15 - - -
24/02:00am - - - - - SSW 26 32 14 17 - - -
24/01:30am - - - - - S 26 35 14 19 - - -
24/01:00am - - - - - S 37 44 20 24 - - -
24/12:30am - - - - - S 33 41 18 22 - - -
24/12:00am - - - - - S 32 35 17 19 - - -
 
Date/Time
EST
Temp
°C
App
Temp
°C
Dew
Point
Rel
Hum
%
Delta-T
°C
Wind Press
QNH
hPa
Press
MSL
hPa
Rain
since 9 am
mm
Dir
 
Spd
km/h
Gust
km/h
Spd
kts
Gust
kts
23/11:30pm - - - - - S 30 35 16 19 - - -
23/11:00pm - - - - - S 28 32 15 17 - - -
23/10:30pm - - - - - S 30 35 16 19 - - -
23/10:00pm - - - - - SSW 28 33 15 18 - - -
23/09:30pm - - - - - SSW 30 33 16 18 - - -
23/09:00pm - - - - - SSW 30 33 16 18 - - -
23/08:30pm - - - - - S 32 39 17 21 - - -
23/08:00pm - - - - - S 32 39 17 21 - - -
23/07:30pm - - - - - S 32 37 17 20 - - -
23/07:00pm - - - - - S 33 41 18 22 - - -
23/06:30pm - - - - - S 30 35 16 19 - - -
23/06:00pm - - - - - S 30 35 16 19 - - -
23/05:30pm - - - - - S 28 33 15 18 - - -
23/05:00pm - - - - - S 26 30 14 16 - - -
23/04:30pm - - - - - S 33 39 18 21 - - -
23/04:00pm - - - - - S 39 46 21 25 - - -
23/03:30pm - - - - - SSE 44 54 24 29 - - -
23/03:00pm - - - - - SSE 35 43 19 23 - - -
23/02:30pm - - - - - SSE 44 57 24 31 - - -
23/02:00pm - - - - - SSE 37 46 20 25 - - -
23/01:30pm - - - - - SSE 41 48 22 26 - - -
23/01:00pm - - - - - SSE 48 59 26 32 - - -
23/12:30pm - - - - - SSE 43 52 23 28 - - -
23/12:00pm - - - - - SSE 46 56 25 30 - - -
23/11:30am - - - - - SSE 44 56 24 30 - - -
23/11:00am - - - - - SSE 44 54 24 29 - - -
23/10:30am - - - - - SSE 37 52 20 28 - - -
23/10:25am - - - - - S 28 52 15 28 - - -
23/10:00am - - - - - SSW 26 32 14 17 - - -
23/09:30am - - - - - SSW 26 32 14 17 - - -
23/09:00am - - - - - SSW 28 33 15 18 - - -
23/08:30am - - - - - SSW 28 33 15 18 - - -
23/08:00am - - - - - SSW 30 33 16 18 - - -
23/07:30am - - - - - SSW 32 35 17 19 - - -
23/07:00am - - - - - SSW 30 35 16 19 - - -
23/06:30am - - - - - SSW 32 39 17 21 - - -
23/06:00am - - - - - SSW 33 41 18 22 - - -
23/05:30am - - - - - SSW 33 41 18 22 - - -
23/05:00am - - - - - SW 30 35 16 19 - - -
23/04:30am - - - - - SW 33 37 18 20 - - -
23/04:00am - - - - - SSW 33 39 18 21 - - -
23/03:30am - - - - - SW 33 39 18 21 - - -

Other Formats:

Comma delimited format used in spreadsheet applications
http://www.bom.gov.au/fwo/IDQ60801/IDQ60801.94590.axf

JavaScript Object Notation format (JSON) in row-major order
http://www.bom.gov.au/fwo/IDQ60801/IDQ60801.94590.json